Buffalo, WY

10:40 PM MST on December 26, 2014 (GMT -0700)
Esponda Ranch | Change Station
CLOSE
Current Station
Personal Weather Station
Location: Buffalo, WY
Elevation: 4665 ft
Nearby Weather Stations

Elev 4665 ft 44.32 °N, 106.67 °W | Updated 40 seconds ago

Overcast
Overcast
19.2 °F
Feels Like 19 °F
N
0.0
Wind Variable Wind from NW
Gusts 5.0 mph

Today
High -- | Low -- °F
--% Chance of Precip.
Yesterday
High -- | Low -- °F
Precip. -- in
7:41 AM 4:33 PM
Waxing Crescent, 33% visible
Pressure 30.23 in
Visibility 10.0 miles
Clouds Overcast 8500 ft
Windchill 19 °F
Dew Point 15 °F
Humidity 83%
Rainfall 0.00 in
Snow Depth Not available.
UV 0 out of 12
Pollen .10 out of 12
Air Quality Not available.
Flu Activity Not available.
METAR KBYG 270453Z AUTO 32008KT 10SM OVC085 M08/M11 A3006 RMK AO2 SLP236 T10781106 $

More Conditions Fewer Conditions

Pressure 30.23 in
Visibility 10.0 miles
Clouds Overcast 8500 ft
Windchill 19 °F
Dew Point 15 °F
Humidity 83%
Rainfall 0.00 in
Snow Depth Not available.
UV 0 out of 12
Pollen .10 out of 12
Air Quality Not available.
Flu Activity Not available.
METAR KBYG 270453Z AUTO 32008KT 10SM OVC085 M08/M11 A3006 RMK AO2 SLP236 T10781106 $

More Conditions Fewer Conditions

10-Day Weather Forecast

Almanac

Astronomy

Dec. 26, 2014 Rise Set
Actual Time
Civil Twilight
Nautical Twilight
Astronomical Twilight
Moon
Length of Visible Light
Length of Day
Tomorrow will be .
, % of the Moon is Illuminated

Today's Extremes

State Highs State Lows

Community

WunderPhotos

Upload Photos

1,780,850 photos uploaded!

WunderBlogs® & News

Nearby

Air Quality

  Air Quality AQ Index Pollutant
Not available.

Snow Depth

Station Depth Elevation

Earthquake Activity

City Distance Mag. Time & Date
Minimum magnitude displayed is 2.5.

Coastal Water Temperatures

Place Temperature

Nearby Weather Stations